Andrews, NC

4:12 AM EDT on October 18, 2017 (GMT -0400)
Andrews

Weather History for KRHP - November, 2011

Change the Weather History Date:

Monday, November 14, 2011

  Actual Average (KMMI) Record (KMMI)
Temperature  
Mean Temperature 58 °F -  
Max Temperature 62 °F 58 °F 62 °F (2016)
Min Temperature 55 °F 33 °F 19 °F (2014)
Degree Days  
Heating Degree Days 6    
Growing Degree Days 8 (Base 50)    
Moisture  
Dew Point 56 °F    
Average Humidity 89    
Maximum Humidity 100    
Minimum Humidity 77    
Precipitation  
Precipitation 0.05 in - - ()
Sea Level Pressure  
Sea Level Pressure 30.09 in    
Wind  
Wind Speed 0 mph (SSW)    
Max Wind Speed 4 mph    
Max Gust Speed -    
Visibility 9 miles    
Events Rain    
Averages and records for this station are not official NWS values.
T = Trace of Precipitation, MM = Missing Value Source: NWS Daily Summary

Daily Weather History Graph

Daily Weather History Graph

Search for Another Location

Airport or City:

Trip Planner

Search our weather history database for the weather conditions in past years. The results will help you decide how hot, cold, wet, or windy it might be!

Date:

Astronomy

Nov. 14, 2011 Rise Set
Actual Time 7:09 AM EST 5:30 PM EST
Civil Twilight 6:42 AM EST 5:57 PM EST
Nautical Twilight 6:11 AM EST 6:27 PM EST
Astronomical Twilight 5:41 AM EST 6:57 PM EST
Moon 8:38 PM EST (11/14) 10:23 AM EST (11/14)
Length of Visible Light 11h 15m
Length of Day
10h 21m
Waning Gibbous, 87% of the Moon is Illuminated
Nov 14
Waning Gibbous
Nov 18
Last Quarter
Nov 25
New
Dec 2
First Quarter
Dec 10
Full

Hourly Weather History & Observations

Time (EST) Temp. Dew Point Humidity Pressure Visibility Wind Dir Wind Speed Gust Speed Precip Events Conditions
12:15 AM 55.4 °F 50.0 °F 82% 30.11 in 10.0 mi Calm Calm - N/A   Overcast
12:35 AM 55.4 °F 50.0 °F 82% 30.11 in 10.0 mi Calm Calm - N/A   Overcast
12:55 AM 55.4 °F 50.0 °F 82% 30.11 in 10.0 mi Calm Calm - N/A   Overcast
1:15 AM 55.4 °F 50.0 °F 82% 30.11 in 10.0 mi Calm Calm - N/A   Overcast
1:35 AM 55.4 °F 51.8 °F 88% 30.11 in 10.0 mi Calm Calm - N/A   Overcast
1:55 AM 57.2 °F 51.8 °F 82% 30.11 in 10.0 mi Calm Calm - N/A   Overcast
2:15 AM 57.2 °F 51.8 °F 82% 30.12 in 10.0 mi Calm Calm - N/A   Overcast
2:35 AM 57.2 °F 51.8 °F 82% 30.12 in 10.0 mi Calm Calm - N/A   Overcast
2:55 AM 57.2 °F 51.8 °F 82% 30.11 in 10.0 mi Calm Calm - N/A   Overcast
3:15 AM 55.4 °F 51.8 °F 88% 30.11 in 10.0 mi Calm Calm - N/A   Overcast
3:35 AM 57.2 °F 51.8 °F 82% 30.10 in 10.0 mi Calm Calm - N/A   Overcast
3:55 AM 59.0 °F 51.8 °F 77% 30.11 in 10.0 mi Calm Calm - N/A   Overcast
4:35 AM 59.0 °F 51.8 °F 77% 30.11 in 10.0 mi West 3.5 mph - N/A   Overcast
4:55 AM 59.0 °F 51.8 °F 77% 30.11 in 10.0 mi Calm Calm - N/A   Overcast
5:15 AM 59.0 °F 51.8 °F 77% 30.11 in 10.0 mi Calm Calm - N/A   Overcast
5:35 AM 59.0 °F 51.8 °F 77% 30.11 in 10.0 mi Calm Calm - N/A   Overcast
5:55 AM 59.0 °F 51.8 °F 77% 30.11 in 10.0 mi Calm Calm - N/A   Overcast
6:15 AM 59.0 °F 51.8 °F 77% 30.11 in 10.0 mi Calm Calm - N/A   Overcast
6:35 AM 59.0 °F 51.8 °F 77% 30.12 in 10.0 mi Calm Calm - N/A Rain Rain
7:15 AM 57.2 °F 51.8 °F 82% 30.12 in 10.0 mi Calm Calm - N/A   Overcast
7:35 AM 57.2 °F 51.8 °F 82% 30.13 in 10.0 mi Calm Calm - N/A   Overcast
7:55 AM 55.4 °F 53.6 °F 94% 30.12 in 10.0 mi Calm Calm - N/A   Overcast
8:35 AM 57.2 °F 53.6 °F 88% 30.12 in 10.0 mi Calm Calm - N/A   Overcast
8:55 AM 57.2 °F 53.6 °F 88% 30.13 in 10.0 mi Calm Calm - N/A Rain Rain
9:35 AM 57.2 °F 53.6 °F 88% 30.14 in 7.0 mi Calm Calm - N/A Rain Rain
9:55 AM 57.2 °F 55.4 °F 94% 30.14 in 10.0 mi Calm Calm - N/A   Overcast
10:15 AM 59.0 °F 55.4 °F 88% 30.14 in 7.0 mi Calm Calm - N/A Rain Rain
10:35 AM 59.0 °F 55.4 °F 88% 30.15 in 5.0 mi Calm Calm - 0.01 in Rain Light Rain
10:55 AM 59.0 °F 57.2 °F 94% 30.15 in 5.0 mi Calm Calm - 0.02 in Rain Heavy Rain
11:35 AM 59.0 °F 57.2 °F 94% 30.13 in 7.0 mi Calm Calm - 0.01 in   Light Drizzle
11:55 AM 59.0 °F 57.2 °F 94% 30.12 in 7.0 mi Calm Calm - 0.01 in   Overcast
12:15 PM 59.0 °F 57.2 °F 94% 30.11 in 2.0 mi Calm Calm - N/A   Heavy Drizzle
12:35 PM 59.0 °F 59.0 °F 100% 30.10 in 5.0 mi Calm Calm - 0.01 in   Overcast
12:55 PM 59.0 °F 59.0 °F 100% 30.09 in 5.0 mi Calm Calm - 0.01 in Rain Light Rain
1:15 PM 59.0 °F 59.0 °F 100% 30.08 in 5.0 mi Calm Calm - N/A   Overcast
1:35 PM 60.8 °F 59.0 °F 94% 30.07 in 7.0 mi Calm Calm - N/A   Overcast
1:55 PM 60.8 °F 59.0 °F 94% 30.07 in 7.0 mi Calm Calm - N/A   Overcast
2:15 PM 60.8 °F 59.0 °F 94% 30.06 in 10.0 mi Calm Calm - N/A   Overcast
2:35 PM 60.8 °F 59.0 °F 94% 30.06 in 10.0 mi Calm Calm - N/A   Overcast
3:15 PM 62.6 °F 59.0 °F 88% 30.05 in 10.0 mi Calm Calm - N/A   Overcast
3:35 PM 62.6 °F 59.0 °F 88% 30.04 in 10.0 mi Calm Calm - N/A   Overcast
3:55 PM 62.6 °F 59.0 °F 88% 30.04 in 7.0 mi Calm Calm - N/A   Overcast
4:15 PM 62.6 °F 59.0 °F 88% 30.04 in 7.0 mi Calm Calm - N/A   Light Drizzle
4:35 PM 62.6 °F 60.8 °F 94% 30.03 in 10.0 mi Calm Calm - N/A   Overcast
4:55 PM 62.6 °F 60.8 °F 94% 30.03 in 10.0 mi Calm Calm - N/A   Overcast
5:15 PM 62.6 °F 60.8 °F 94% 30.03 in 10.0 mi Calm Calm - N/A   Overcast
5:35 PM 62.6 °F 60.8 °F 94% 30.04 in 10.0 mi Calm Calm - N/A Rain Rain
5:55 PM 60.8 °F 59.0 °F 94% 30.04 in 10.0 mi Calm Calm - N/A   Overcast
6:15 PM 60.8 °F 59.0 °F 94% 30.05 in 7.0 mi Calm Calm - N/A   Overcast
6:35 PM 60.8 °F 59.0 °F 94% 30.05 in 7.0 mi Calm Calm - N/A   Overcast
6:55 PM 60.8 °F 59.0 °F 94% 30.05 in 7.0 mi Calm Calm - N/A   Overcast
7:15 PM 60.8 °F 59.0 °F 94% 30.06 in 7.0 mi Calm Calm - N/A Rain Rain
7:35 PM 59.0 °F 59.0 °F 100% 30.06 in 7.0 mi Calm Calm - N/A   Light Drizzle
7:55 PM 60.8 °F 59.0 °F 94% 30.06 in 7.0 mi Calm Calm - 0.01 in Rain Light Rain
8:15 PM 60.8 °F 59.0 °F 94% 30.06 in 10.0 mi SE 3.5 mph - N/A   Overcast
8:35 PM 59.0 °F 59.0 °F 100% 30.06 in 5.0 mi Calm Calm - N/A Rain Rain
8:55 PM 59.0 °F 59.0 °F 100% 30.04 in 7.0 mi Calm Calm - N/A   Overcast
9:15 PM 59.0 °F 59.0 °F 100% 30.04 in 10.0 mi Calm Calm - N/A   Overcast
9:35 PM 59.0 °F 59.0 °F 100% 30.04 in 10.0 mi Calm Calm - N/A   Overcast
10:15 PM 62.6 °F 59.0 °F 88% 30.03 in 10.0 mi Calm Calm - N/A   Overcast
10:35 PM 60.8 °F 59.0 °F 94% 30.04 in 10.0 mi Calm Calm - N/A Rain Rain
10:55 PM 60.8 °F 59.0 °F 94% 30.04 in 10.0 mi Calm Calm - N/A Rain Rain
11:15 PM 60.8 °F 59.0 °F 94% 30.03 in 7.0 mi Calm Calm - 0.01 in   Drizzle
11:35 PM 60.8 °F 59.0 °F 94% 30.03 in 7.0 mi Calm Calm - 0.01 in Rain Rain
11:55 PM 60.8 °F 59.0 °F 94% 30.04 in 7.0 mi West 9.2 mph - 0.01 in   Drizzle